| time (UTC) | temp F | wind direction | speed MPH | gust MPH | rain 1hr in | rain 24hr in | rain mn in | humidity % | barometer mb |
| 20260504173505 | 40 | 0 | 0.0 | 2.0 | 0.00 | 0.05 | 0.04 | 95 | 1012.5 |
| 20260504172001 | 41 | 0 | 0.0 | 0.0 | 0.00 | 0.05 | 0.04 | 96 | 1012.3 |
| 20260504170457 | 40 | 0 | 0.0 | 0.0 | 0.00 | 0.05 | 0.04 | 96 | 1012.6 |
| 20260504160439 | 39 | 0 | 0.0 | 0.0 | 0.00 | 0.05 | 0.04 | 95 | 1013.2 |
| 20260504150423 | 39 | 0 | 0.0 | 0.0 | 0.01 | 0.05 | 0.04 | 95 | 1013.6 |
| 20260504140407 | 39 | 0 | 0.0 | 0.0 | 0.00 | 0.04 | 0.03 | 95 | 1014.1 |
| 20260504130351 | 39 | 0 | 0.0 | 0.0 | 0.01 | 0.04 | 0.03 | 95 | 1014.3 |
| 20260504110315 | 38 | 0 | 0.0 | 1.0 | 0.01 | 0.02 | 0.01 | 94 | 1014.8 |
| 20260504100259 | 38 | 0 | 0.0 | 0.0 | 0.00 | 0.01 | 0.00 | 93 | 1015.1 |
| 20260504081727 | 39 | 0 | 0.0 | 0.0 | 0.00 | 0.01 | 0.01 | 92 | 1015.5 |
| 20260504080221 | 39 | 0 | 0.0 | 0.0 | 0.00 | 0.01 | 0.01 | 92 | 1015.5 |
| 20260504070203 | 40 | 0 | 0.0 | 0.0 | 0.00 | 0.01 | 0.01 | 91 | 1015.2 |
| 20260504060145 | 41 | 0 | 0.0 | 0.0 | 0.00 | 0.01 | 0.01 | 90 | 1015.4 |
| 20260504050129 | 42 | 0 | 0.0 | 0.0 | 0.00 | 0.01 | 0.01 | 90 | 1015.6 |
| 20260504044625 | 42 | 0 | 0.0 | 0.0 | 0.00 | 0.01 | 0.01 | 89 | 1015.7 |
| 20260504043123 | 42 | 0 | 0.0 | 0.0 | 0.00 | 0.01 | 0.01 | 88 | 1015.7 |
| 20260504041617 | 42 | 0 | 0.0 | 0.0 | 0.00 | 0.01 | 0.01 | 86 | 1015.8 |
| 20260504040111 | 42 | 0 | 0.0 | 0.0 | 0.00 | 0.01 | 0.01 | 84 | 1016.0 |
| 20260504033101 | 43 | 0 | 0.0 | 0.0 | 0.01 | 0.01 | 0.01 | 85 | 1016.2 |
| 20260504031557 | 43 | 0 | 0.0 | 0.0 | 0.01 | 0.01 | 0.01 | 84 | 1016.3 |
| 20260504030053 | 43 | 0 | 0.0 | 5.0 | 0.01 | 0.01 | 0.01 | 83 | 1016.3 |
| 20260504024549 | 44 | 0 | 0.0 | 4.0 | 0.00 | 0.00 | 0.00 | 82 | 1016.4 |
| 20260504023045 | 44 | 0 | 0.0 | 0.0 | 0.00 | 0.00 | 0.00 | 80 | 1016.4 |
| 20260504021539 | 44 | 0 | 0.0 | 0.0 | 0.00 | 0.00 | 0.00 | 75 | 1017.5 |
| 20260504020035 | 45 | 0 | 0.0 | 0.0 | 0.00 | 0.00 | 0.00 | 73 | 1016.4 |
| 20260504014531 | 45 | 293 | 2.0 | 6.0 | 0.00 | 0.00 | 0.00 | 69 | 1016.5 |
| 20260504013027 | 47 | 256 | 1.0 | 3.0 | 0.00 | 0.00 | 0.00 | 65 | 1016.5 |
| 20260504011523 | 47 | 0 | 0.0 | 1.0 | 0.00 | 0.00 | 0.00 | 65 | 1016.6 |
| 20260504010019 | 48 | 0 | 0.0 | 3.0 | 0.00 | 0.00 | 0.00 | 59 | 1016.6 |
| 20260504004515 | 49 | 120 | 2.0 | 6.0 | 0.00 | 0.00 | 0.00 | 58 | 1016.6 |
| 20260504003009 | 49 | 0 | 0.0 | 0.0 | 0.00 | 0.00 | 0.00 | 55 | 1016.6 |
| 20260504001505 | 48 | 0 | 0.0 | 1.0 | 0.00 | 0.00 | 0.00 | 55 | 1016.8 |
| 20260504000001 | 49 | 0 | 0.0 | 0.0 | 0.00 | 0.00 | 0.00 | 56 | 1016.8 |
| 20260503234457 | 49 | 0 | 0.0 | 4.0 | 0.00 | 0.00 | 0.00 | 55 | 1016.8 |
| 20260503232953 | 49 | 0 | 0.0 | 1.0 | 0.00 | 0.00 | 0.00 | 54 | 1017.0 |
| 20260503231449 | 48 | 0 | 0.0 | 1.0 | 0.00 | 0.00 | 0.00 | 56 | 1017.2 |
| 20260503225945 | 48 | 0 | 0.0 | 2.0 | 0.00 | 0.00 | 0.00 | 58 | 1017.1 |
| 20260503224439 | 49 | 0 | 0.0 | 5.0 | 0.00 | 0.00 | 0.00 | 54 | 1017.1 |
| 20260503222933 | 49 | 0 | 0.0 | 5.0 | 0.00 | 0.00 | 0.00 | 50 | 1017.1 |
| 20260503215923 | 51 | 241 | 1.0 | 9.0 | 0.00 | 0.00 | 0.00 | 47 | 1017.1 |
| 20260503214419 | 51 | 283 | 4.0 | 9.0 | 0.00 | 0.00 | 0.00 | 43 | 1017.1 |
| 20260503212913 | 51 | 0 | 0.0 | 1.0 | 0.00 | 0.00 | 0.00 | 42 | 1017.1 |
| 20260503211409 | 51 | 327 | 1.0 | 5.0 | 0.00 | 0.00 | 0.00 | 40 | 1017.1 |
| 20260503205905 | 51 | 295 | 2.0 | 5.0 | 0.00 | 0.00 | 0.00 | 41 | 1017.2 |
| 20260503204401 | 51 | 301 | 5.0 | 10.0 | 0.00 | 0.00 | 0.00 | 42 | 1017.3 |
| 20260503202857 | 51 | 333 | 1.0 | 7.0 | 0.00 | 0.00 | 0.00 | 42 | 1017.2 |
| 20260503201353 | 51 | 0 | 0.0 | 8.0 | 0.00 | 0.00 | 0.00 | 42 | 1017.1 |
| 20260503195847 | 50 | 326 | 3.0 | 6.0 | 0.00 | 0.00 | 0.00 | 42 | 1017.4 |
| 20260503194341 | 50 | 0 | 0.0 | 2.0 | 0.00 | 0.00 | 0.00 | 44 | 1017.2 |
| 20260503192837 | 49 | 0 | 0.0 | 6.0 | 0.00 | 0.00 | 0.00 | 43 | 1017.5 |
| 20260503191331 | 49 | 274 | 1.0 | 9.0 | 0.00 | 0.00 | 0.00 | 43 | 1017.5 |
| 20260503185827 | 49 | 0 | 0.0 | 6.0 | 0.00 | 0.00 | 0.00 | 45 | 1017.6 |
| 20260503184323 | 48 | 284 | 2.0 | 7.0 | 0.00 | 0.00 | 0.00 | 46 | 1017.6 |
| 20260503182819 | 48 | 0 | 0.0 | 6.0 | 0.00 | 0.00 | 0.00 | 49 | 1017.4 |
| 20260503181315 | 48 | 0 | 0.0 | 2.0 | 0.00 | 0.00 | 0.00 | 50 | 1017.4 |
| 20260503175811 | 49 | 299 | 5.0 | 9.0 | 0.00 | 0.00 | 0.00 | 49 | 1017.4 |